TIME,�g��[���C[MJ/h],����[MJ/h],�Ɩ�[MJ/h],�~�[[MJ/h],�①��[MJ/h],��y���[MJ/h],�Ǝ��q��[MJ/h],���̑�[MJ/h],�����G�l���M�[[MJ/h]
2003/9/1 0:00,0,0,0,0.1708,0.1659,0.0408,0.0242,1.5049,0
2003/9/1 0:15,0,0,0,0.1853,0.2903,0.0435,0.067,1.3156,0
2003/9/1 0:30,0,0,0,0.1884,0.4445,0.0438,0.0128,1.0695,0
2003/9/1 0:45,0,0,0,0.1803,0.0582,0.0429,0.015,1.2105,0
2003/9/1 1:00,0,0,0,0.1941,0.4706,0.0426,0.0153,0.4421,0
2003/9/1 1:15,0,0,0,0.1824,0.234,0.0429,0.015,0.3095,0
2003/9/1 1:30,0,0,0,0.184,0.2491,0.0431,0.0153,0.2539,0
2003/9/1 1:45,0,0,0,0.1858,0.4005,0.0431,0.0636,0.2645,0
2003/9/1 2:00,0,0,0,0.1833,0.0747,0.0432,0.0153,0.2661,0
2003/9/1 2:15,0,0,0,0.1941,0.3957,0.0435,0.0154,0.2624,0
2003/9/1 2:30,0,0,0,0.1803,0.2964,0.0429,0.0154,0.2611,0
2003/9/1 2:45,0,0,0,0.1896,0.163,0.0432,0.0156,0.2523,0
2003/9/1 3:00,0,0,0,0.1865,0.4055,0.0429,0.0154,0.2631,0
2003/9/1 3:15,0,0,0,0.185,0.1338,0.0431,0.066,0.2544,0
2003/9/1 3:30,0,0,0,0.3352,0.3273,0.0433,0.0156,0.15,0
2003/9/1 3:45,0,0,0,0.2343,0.3898,0.0436,0.0157,0.2275,0
2003/9/1 4:00,0,0,0,0.195,0.4239,0.0432,0.0156,0.2579,0
2003/9/1 4:15,0,0,0,0.2209,0.3624,0.0436,0.0158,0.2438,0
2003/9/1 4:30,0,0,0,0.2105,0.5744,0.0436,0.0158,0.2432,0
2003/9/1 4:45,0,0,0,0.2218,0.526,0.0436,0.0649,0.2604,0
2003/9/1 5:00,0,0,0,0.2192,0.5628,0.0435,0.016,0.254,0
2003/9/1 5:15,0,0,0,0.2094,0.5324,0.0436,0.0158,0.294,0
2003/9/1 5:30,0,0,0,0.2193,0.5103,0.0432,0.0163,0.3499,0
2003/9/1 5:45,0,0,0,0.2184,0.5103,0.0435,0.016,0.4337,0
2003/9/1 6:00,0,0,0,0.2167,0.0832,0.0432,0.0161,0.4458,0
2003/9/1 6:15,0,0,0,0.2144,0.416,0.0433,0.0772,0.3879,0
2003/9/1 6:30,0,0,0,0.218,0.1596,0.0432,0.0275,0.2615,0
2003/9/1 6:45,0,0,0,0.7515,0.3496,0.2208,0.0266,0.5959,0
2003/9/1 7:00,0,0,0,3.6507,0.3843,0.4314,0.0268,1.0498,0
2003/9/1 7:15,0,0,0,0.5587,0.1227,0.4084,0.0238,0.9984,0
2003/9/1 7:30,0,0,0,0.4696,0.4622,0.4176,0.075,1.7916,0
2003/9/1 7:45,0,0,0,1.0037,0.1686,0.4324,0.0271,1.2904,0
2003/9/1 8:00,0,0,0,0.2112,0.3455,0.4206,0.0265,1.689,0
2003/9/1 8:15,0,0,0,0.216,0.2976,0.4353,0.0552,1.4517,0
2003/9/1 8:30,0,0,0,0.2236,0.2076,0.4337,0.0269,1.8814,0
2003/9/1 8:45,0,0,0,0.2249,0.4412,0.433,0.0272,1.2604,0
2003/9/1 9:00,0,0,0,0.2199,0.146,0.4411,0.0269,1.2701,0
2003/9/1 9:15,0,0,0,0.2196,0.3629,0.3131,0.0769,0.9599,0
2003/9/1 9:30,0,0,0,0.1765,0.3689,0.0429,0.0272,0.7697,0
2003/9/1 9:45,0,0,0,0.1525,0.1404,0.0429,0.0266,0.7383,0
2003/9/1 10:00,0,0,0,0.1806,0.4465,0.0428,0.0266,0.738,0
2003/9/1 10:15,0,0,0,0.1837,0.0589,0.0425,0.0268,0.7243,0
2003/9/1 10:30,0,0,0,0.1863,0.4563,0.0426,0.0268,0.7275,0
2003/9/1 10:45,0,0,0,0.196,0.1413,0.0425,0.0739,0.7203,0
2003/9/1 11:00,0,0,0,0.1889,0.3686,0.0425,0.0266,0.8284,0
2003/9/1 11:15,0,0,0,0.1905,0.2068,0.0973,0.0266,1.1016,0
2003/9/1 11:30,0,0,0,0.1957,0.3082,0.4461,0.0271,1.0617,0
2003/9/1 11:45,0,0,0,0.1905,0.3649,0.454,0.0268,1.0146,0
2003/9/1 12:00,0,0,0,0.1845,0.1413,0.4016,0.0268,1.0437,0
2003/9/1 12:15,0,0,0,0.1904,0.4434,0.0886,0.0729,1.4017,0
2003/9/1 12:30,0,0,0,0.192,0.0632,0.0888,0.0268,1.3408,0
2003/9/1 12:45,0,0,0,0.1866,0.4618,0.0886,0.0266,1.3385,0
2003/9/1 13:00,0,0,0,2.3301,0.139,0.0891,0.0269,1.4594,0
2003/9/1 13:15,0,0,0,0.1935,0.3776,0.089,0.0268,1.2374,0
2003/9/1 13:30,0,0,0,0.1941,0.453,0.089,0.0265,1.2133,0
2003/9/1 13:45,0,0,0,0.1876,0.1179,0.0888,0.0969,1.5323,0
2003/9/1 14:00,0,0,0,0.1945,0.3972,0.089,0.0256,1.5093,0
2003/9/1 14:15,0,0,0,0.1888,0.3275,0.089,0.0588,1.3228,0
2003/9/1 14:30,0,0,0,0.1894,0.185,0.089,0.0262,0.8433,0
2003/9/1 14:45,0,0,0,0.1918,0.4595,0.0887,0.0261,0.8382,0
2003/9/1 15:00,0,0,0,0.1878,0.1536,0.0884,0.0264,0.9079,0
2003/9/1 15:15,0,0,0,0.1881,0.3622,0.0884,0.0259,1.1943,0
2003/9/1 15:30,0,0,0,0.3371,0.3443,0.0884,0.068,0.8222,0
2003/9/1 15:45,0,0,0,0.2468,0.1538,0.0884,0.0262,0.7809,0
2003/9/1 16:00,0,0,0,0.1968,0.4071,0.0884,0.0173,0.795,0
2003/9/1 16:15,0,0,0,0.2154,0.1515,0.0883,0.0132,0.5573,0
2003/9/1 16:30,0,0,0,0.2233,0.346,0.0881,0.0154,0.5481,0
2003/9/1 16:45,0,0,0,0.22,0.3862,0.175,0.0827,0.7164,0
2003/9/1 17:00,0,0,0,0.2275,0.1263,0.4514,0.0268,0.8031,0
2003/9/1 17:15,0,0,0,0.1358,0.4601,0.2445,0.0245,0.9953,0
2003/9/1 17:30,0,0,0,0.6129,0.4395,0.0881,0.0251,1.1304,0
2003/9/1 17:45,0,0,0,2.557,0.0598,0.0876,0.0258,0.9265,0
2003/9/1 18:00,0,0,0,0.9844,0.471,0.0877,0.0256,1.15,0
2003/9/1 18:15,0,0,0,1.0584,0.4133,0.0874,0.017,1.2053,0
2003/9/1 18:30,0,0,0,1.2133,0.0816,0.0874,0.0602,1.1134,0
2003/9/1 18:45,0,0,0,0.0435,0.4683,0.0876,0.0148,1.0678,0
2003/9/1 19:00,0,0,0,0.0403,0.4104,0.2406,0.0284,1.284,0
2003/9/1 19:15,0,0,0,0.0363,0.0835,0.0433,0.0264,1.1822,0
2003/9/1 19:30,0,0,0,0.0351,0.412,0.042,0.0256,1.6564,0
2003/9/1 19:45,0,0,0,0.0632,0.3554,0.0419,0.0173,1.946,0
2003/9/1 20:00,0,0,0,0.0719,0.0674,0.0423,0.0576,1.653,0
2003/9/1 20:15,0,0,0,0.0713,0.4126,0.0426,0.0147,1.4478,0
2003/9/1 20:30,0,0,0,0.0733,0.3508,0.0426,0.0249,1.6057,0
2003/9/1 20:45,0,0,0,0.0788,0.0943,0.0426,0.0264,1.327,0
2003/9/1 21:00,0,0,0,0.0792,0.4091,0.0431,0.0256,1.3261,0
2003/9/1 21:15,0,0,0,0.0759,0.1875,0.0428,0.0256,1.117,0
2003/9/1 21:30,0,0,0,0.0747,0.2719,0.0426,0.0707,1.8197,0
2003/9/1 21:45,0,0,0,0.0762,0.3973,0.0423,0.0251,1.1631,0
2003/9/1 22:00,0,0,0,0.0785,0.055,0.0428,0.0256,1.102,0
2003/9/1 22:15,0,0,0,1.9927,0.4781,0.0425,0.0248,1.2612,0
2003/9/1 22:30,0,0,0,0.0789,0.4399,0.0423,0.0252,1.5947,0
2003/9/1 22:45,0,0,0,0.0762,0.0536,0.0426,0.0451,1.6491,0
2003/9/1 23:00,0,0,0,0.0796,0.4643,0.1876,0.7753,1.2296,0
2003/9/1 23:15,0,0,0,0.0746,0.2493,0.4101,0.6257,1.129,0
2003/9/1 23:30,0,0,0,0.0785,0.235,0.4094,0.5638,0.9963,0
2003/9/1 23:45,0,0,0,0.0789,0.4113,0.4159,0.1911,1.1768,0
2003/9/2 0:00,0,0,0,0.077,0.2091,0.4575,0.0258,1.3347,0
2003/9/2 0:15,0,0,0,0.0757,0.2762,0.4598,0.0171,1.2334,0
2003/9/2 0:30,0,0,0,2.4395,0.4546,0.0441,0.0616,0.345,0
2003/9/2 0:45,0,0,0,1.1602,0.2213,0.0428,0.015,0.0914,0
2003/9/2 1:00,0,0,0,0.0755,0.2724,0.0429,0.0154,0.266,0
2003/9/2 1:15,0,0,0,0.1102,0.4452,0.0433,0.0154,0.2568,0
2003/9/2 1:30,0,0,0,0.1837,0.0746,0.0429,0.0151,0.2442,0
2003/9/2 1:45,0,0,0,0.2069,0.3997,0.0432,0.0154,0.2376,0
2003/9/2 2:00,0,0,0,0.2115,0.2506,0.0433,0.0651,0.2275,0
2003/9/2 2:15,0,0,0,0.22,0.2081,0.0429,0.0151,0.2432,0
2003/9/2 2:30,0,0,0,0.2138,0.3941,0.0425,0.0154,0.2313,0
2003/9/2 2:45,0,0,0,0.2184,0.2341,0.0428,0.0153,0.2262,0
2003/9/2 3:00,0,0,0,0.2186,0.2141,0.0429,0.0154,0.2344,0
2003/9/2 3:15,0,0,0,0.2192,0.3993,0.0431,0.0154,0.2439,0
2003/9/2 3:30,0,0,0,0.2151,0.4048,0.0432,0.06,0.2524,0
2003/9/2 3:45,0,0,0,0.2153,0.3113,0.0432,0.0156,0.2513,0
2003/9/2 4:00,0,0,0,0.2242,0.5694,0.0433,0.0154,0.2441,0
2003/9/2 4:15,0,0,0,0.2167,0.5714,0.0433,0.0156,0.2408,0
2003/9/2 4:30,0,0,0,0.2222,0.5178,0.0433,0.0156,0.2621,0
2003/9/2 4:45,0,0,0,0.2121,0.543,0.0432,0.0665,0.2615,0
2003/9/2 5:00,0,0,0,0.2192,0.509,0.0435,0.0154,0.2444,0
2003/9/2 5:15,0,0,0,0.2137,0.1256,0.0432,0.0157,0.2527,0
2003/9/2 5:30,0,0,0,0.2189,0.4028,0.0432,0.0157,0.2425,0
2003/9/2 5:45,0,0,0,0.2216,0.3315,0.0435,0.0157,0.2429,0
2003/9/2 6:00,0,0,0,0.2212,0.1706,0.0432,0.0156,0.2493,0
2003/9/2 6:15,0,0,0,0.2187,0.4465,0.0435,0.0753,0.2517,0
2003/9/2 6:30,0,0,0,0.1679,0.0576,0.0429,0.0269,0.2609,0
2003/9/2 6:45,0,0,0,0.1508,0.4581,0.0431,0.0266,0.2588,0
2003/9/2 7:00,0,0,0,2.9969,0.1168,0.3262,0.0258,0.8807,0
2003/9/2 7:15,0,0,0,0.7508,0.4025,0.4242,0.0249,1.2005,0
2003/9/2 7:30,0,0,0,0.1859,0.3344,0.4231,0.0239,1.0633,0
2003/9/2 7:45,0,0,0,0.221,0.1735,0.4219,0.0698,1.1046,0
2003/9/2 8:00,0,0,0,0.184,0.4589,0.4152,0.0192,1.4102,0
2003/9/2 8:15,0,0,0,0.1812,0.1303,0.4249,0.0307,1.0763,0
2003/9/2 8:30,0,0,0,0.1862,0.3816,0.3649,0.0635,1.0107,0
2003/9/2 8:45,0,0,0,0.1876,0.3725,0.4357,0.0305,0.9971,0
2003/9/2 9:00,0,0,0,0.1866,0.1319,0.4224,0.0304,0.9886,0
2003/9/2 9:15,0,0,0,0.1757,0.4553,0.3168,0.03,1.0119,0
2003/9/2 9:30,0,0,0,0.1269,0.1103,0.0432,0.0755,1.0149,0
2003/9/2 9:45,0,0,0,0.127,0.4072,0.0432,0.0259,1.064,0
2003/9/2 10:00,0,0,0,0.129,0.2948,0.0435,0.0251,0.7096,0
2003/9/2 10:15,0,0,0,0.1284,0.2053,0.0431,0.0258,0.575,0
2003/9/2 10:30,0,0,0,0.1246,0.452,0.0429,0.0258,0.5815,0
2003/9/2 10:45,0,0,0,0.1302,0.0719,0.0428,0.0256,0.5763,0
2003/9/2 11:00,0,0,0,0.127,0.4487,0.0431,0.0726,0.5874,0
2003/9/2 11:15,0,0,0,0.1266,0.1891,0.0429,0.0255,0.581,0
2003/9/2 11:30,0,0,0,0.1295,0.3165,0.0429,0.0252,0.5694,0
2003/9/2 11:45,0,0,0,0.1273,0.3603,0.0426,0.0249,0.5744,0
2003/9/2 12:00,0,0,0,0.126,0.1479,0.0514,0.0248,0.5715,0
2003/9/2 12:15,0,0,0,0.1266,0.4486,0.0425,0.0248,0.5751,0
2003/9/2 12:30,0,0,0,0.1261,0.3217,0.0428,0.0732,0.5715,0
2003/9/2 12:45,0,0,0,0.1257,0.1015,0.0425,0.0245,0.5738,0
2003/9/2 13:00,0,0,0,0.127,0.4506,0.0428,0.0228,0.6473,0
2003/9/2 13:15,0,0,0,0.125,0.3256,0.0422,0.0243,0.589,0
2003/9/2 13:30,0,0,0,0.125,0.1398,0.0423,0.024,0.592,0
2003/9/2 13:45,0,0,0,0.1233,0.4517,0.0426,0.0243,0.5944,0
2003/9/2 14:00,0,0,0,0.1201,0.0966,0.0425,0.024,0.3141,0
2003/9/2 14:15,0,0,0,0.1264,0.4231,0.0425,0.0711,0.2454,0
2003/9/2 14:30,0,0,0,0.1251,0.2208,0.0426,0.0235,0.2474,0
2003/9/2 14:45,0,0,0,0.1194,0.29,0.0425,0.0235,0.2506,0
2003/9/2 15:00,0,0,0,0.1243,0.4072,0.0428,0.0233,0.248,0
2003/9/2 15:15,0,0,0,0.1254,0.0989,0.0428,0.0193,0.3108,0
2003/9/2 15:30,0,0,0,0.1246,0.4114,0.0426,0.0223,0.288,0
2003/9/2 15:45,0.184,0,0,0.1205,0.1983,0.0426,0.0225,0.7612,0
2003/9/2 16:00,2.7667,0,0,0.1214,0.2694,0.0426,0.0608,1.1687,0
2003/9/2 16:15,4.1553,0,0,0.1244,0.4153,0.0426,0.0098,1.1212,0
2003/9/2 16:30,4.1309,0,0,0.1257,0.196,0.0428,0.0124,1.0102,0
2003/9/2 16:45,3.9741,0,0,0.6031,0.3054,0.0426,0.0261,0.9909,0
2003/9/2 17:00,3.1033,0,0,0.1251,0.4588,0.0425,0.0236,0.993,0
2003/9/2 17:15,2.1433,0,0,0.1234,0.1869,0.0425,0.023,1.0044,0
2003/9/2 17:30,2.0379,0,0,0.1287,0.2906,0.0425,0.0228,1.0528,0
2003/9/2 17:45,1.7176,0,0,0.1214,0.4035,0.042,0.0688,0.8772,0
2003/9/2 18:00,1.6757,0,0,0.1283,0.167,0.0425,0.0228,0.8774,0
2003/9/2 18:15,1.6612,0,0,0.1227,0.2984,0.0426,0.0157,0.8875,0
2003/9/2 18:30,1.6721,0,0,0.4357,0.4003,0.1004,0.0096,0.9151,0
2003/9/2 18:45,1.6412,0,0,1.2151,0.158,0.4025,0.0154,1.0136,0
2003/9/2 19:00,1.6358,0,0,0.1274,0.3308,0.4314,0.0246,1.0541,0
2003/9/2 19:15,1.632,0,0,0.6335,0.4491,0.4421,0.0716,1.066,0
2003/9/2 19:30,1.6403,0,0,1.0236,0.1704,0.427,0.0235,1.0714,0
2003/9/2 19:45,1.5958,0,0,3.3045,0.3375,0.3794,0.0236,1.0636,0
2003/9/2 20:00,1.0509,0,0,0.2893,0.448,0.2779,0.0235,1.1487,0
2003/9/2 20:15,1.332,0,0,0.1312,0.164,0.0429,0.0222,1.1602,0
2003/9/2 20:30,1.0289,0,0,0.1261,0.3116,0.0428,0.0238,1.0562,0
2003/9/2 20:45,1.2738,0,0,0.1233,0.4607,0.0429,0.0232,1.206,0
2003/9/2 21:00,1.0169,0,0,0.1293,0.1614,0.0431,0.0691,1.2423,0
2003/9/2 21:15,1.0211,0,0,0.1277,0.3146,0.0428,0.0189,1.7313,0
2003/9/2 21:30,0.9795,0,0,0.124,0.3933,0.0425,0.0229,1.6622,0
2003/9/2 21:45,1.3126,0,0,0.125,0.1408,0.0423,0.0232,1.3874,0
2003/9/2 22:00,0.7602,0,0,0.1325,0.3521,0.0428,0.0232,0.9518,0
2003/9/2 22:15,1.2352,0,0,0.429,0.4442,0.0426,0.0235,0.9341,0
2003/9/2 22:30,0.3328,0,0,0.1225,0.1496,0.0422,0.4082,1.0804,0
2003/9/2 22:45,0.7034,0,0,0.126,0.3538,0.0422,0.8258,1.2211,0
2003/9/2 23:00,0.7291,0,0,0.1316,0.4535,0.1575,0.5217,1.3615,0
2003/9/2 23:15,0.0721,0,0,0.1272,0.1457,0.4003,0.4761,1.5054,0
2003/9/2 23:30,0.9199,0,0,0.1299,0.33,0.4055,0.0226,1.6262,0
2003/9/2 23:45,0.3082,0,0,0.1225,0.4056,0.4087,0.0233,1.2707,0
2003/9/3 0:00,0.5282,0,0,0.1277,0.1488,0.3642,0.0232,1.208,0
2003/9/3 0:15,0.1128,0,0,0.1273,0.3681,0.0429,0.0233,1.0022,0
2003/9/3 0:30,0.8618,0,0,0.1284,0.4618,0.0426,0.0729,0.2592,0
2003/9/3 0:45,0.8585,0,0,0.1312,0.2,0.0429,0.0233,0.2559,0
2003/9/3 1:00,0.0654,0,0,0.1267,0.3159,0.0431,0.0163,0.2621,0
2003/9/3 1:15,0.4078,0,0,0.1264,0.4562,0.0431,0.0099,0.2625,0
2003/9/3 1:30,0.3933,0,0,0.1284,0.1866,0.0436,0.0125,0.2837,0
2003/9/3 1:45,0.0773,0,0,0.1279,0.2984,0.0433,0.0124,0.2696,0
2003/9/3 2:00,0.6516,0,0,0.127,0.4045,0.0436,0.0127,0.2654,0
2003/9/3 2:15,0.0675,0,0,0.1254,0.1868,0.0431,0.0582,0.2742,0
2003/9/3 2:30,0.4959,0,0,0.1263,0.2844,0.0426,0.0124,0.2491,0
2003/9/3 2:45,0.0664,0,0,0.1266,0.4025,0.0426,0.0125,0.2719,0
2003/9/3 3:00,0.3823,0,0,0.1295,0.1578,0.0428,0.0125,0.2546,0
2003/9/3 3:15,0.1187,0,0,0.123,0.3069,0.0426,0.0125,0.2712,0
2003/9/3 3:30,0.3263,0,0,0.1293,0.3986,0.0426,0.0124,0.2537,0
2003/9/3 3:45,0.0798,0,0,0.1246,0.4212,0.0431,0.0125,0.2769,0
2003/9/3 4:00,0.2215,0,0,0.1241,0.303,0.0433,0.0613,0.2655,0
2003/9/3 4:15,0.3236,0,0,0.1303,0.5684,0.0435,0.0125,0.2572,0
2003/9/3 4:30,0.0801,0,0,0.1257,0.5751,0.0432,0.0124,0.2791,0
2003/9/3 4:45,0.1662,0,0,0.1274,0.5149,0.0435,0.0125,0.2624,0
2003/9/3 5:00,0.1989,0,0,0.1261,0.5661,0.0436,0.0124,0.3099,0
2003/9/3 5:15,0.1089,0,0,0.1267,0.5342,0.0435,0.0125,0.2737,0
2003/9/3 5:30,0.1084,0,0,0.1247,0.5152,0.0436,0.0125,0.2716,0
2003/9/3 5:45,0.1025,0,0,0.1253,0.3768,0.0438,0.0626,0.2782,0
2003/9/3 6:00,0.1109,0,0,0.1326,0.1338,0.0435,0.0125,0.256,0
2003/9/3 6:15,0.1061,0,0,0.1205,0.4555,0.0431,0.0262,0.2733,0
2003/9/3 6:30,0.1162,0,0,0.1276,0.303,0.0428,0.023,0.2572,0
2003/9/3 6:45,0.1636,0,0,0.1256,0.1561,0.0423,0.023,0.2599,0
2003/9/3 7:00,0.4326,0,0,0.1277,0.4545,0.4126,0.0199,0.8715,0
2003/9/3 7:15,0.9575,0,0,1.0587,0.3617,0.4009,0.0223,0.9786,0
2003/9/3 7:30,1.6037,0,0,1.1801,0.1521,0.4169,0.0719,0.9043,0
2003/9/3 7:45,1.6209,0,0,1.9299,0.4748,0.4241,0.0238,0.966,0
2003/9/3 8:00,1.6423,0,0,1.3647,0.3866,0.4176,0.02,1.3065,0
2003/9/3 8:15,1.6609,0,0,0.0262,0.1257,0.4205,0.0553,1.1052,0
2003/9/3 8:30,1.6783,0,0,0.0595,0.4645,0.3681,0.0266,0.995,0
2003/9/3 8:45,1.7307,0,0,0.1014,0.3714,0.2206,0.0264,0.9226,0
2003/9/3 9:00,1.6348,0,0,0.1113,0.1043,0.0397,0.0246,0.9249,0
2003/9/3 9:15,1.8888,0,0,0.1385,0.5069,0.0454,0.0285,1.061,0
2003/9/3 9:30,1.7968,0,0,0.1284,0.4496,0.0422,0.0768,1.7241,0
2003/9/3 9:45,1.8183,0,0,0.1306,0.1009,0.0432,0.023,1.5576,0
2003/9/3 10:00,1.8662,0,0,0.1274,0.4288,0.0426,0.0228,1.3461,0
2003/9/3 10:15,1.8688,0,0,0.1263,0.462,0.0426,0.0225,1.426,0
2003/9/3 10:30,1.9617,0,0,0.1236,0.2305,0.0425,0.0186,1.3658,0
2003/9/3 10:45,3.2795,0,0,0.13,0.2786,0.0428,0.0225,1.2803,0
2003/9/3 11:00,3.4269,0,0,0.1247,0.4634,0.0423,0.0228,1.2819,0
2003/9/3 11:15,3.2278,0,0,0.1277,0.234,0.0422,0.0693,1.0974,0
2003/9/3 11:30,2.5512,0,0,0.1267,0.2775,0.0429,0.0225,1.2302,0
2003/9/3 11:45,2.5641,0,0,0.1292,0.4641,0.0426,0.0223,0.8971,0
2003/9/3 12:00,2.5995,0,0,0.1295,0.2421,0.0517,0.0222,0.716,0
2003/9/3 12:15,2.4506,0,0,0.1241,0.2684,0.0429,0.0222,0.5766,0
2003/9/3 12:30,2.0514,0,0,0.1253,0.4582,0.0429,0.0223,0.5787,0
2003/9/3 12:45,2.1388,0,0,0.127,0.4257,0.0429,0.0196,0.698,0
2003/9/3 13:00,2.1675,0,0,0.1263,0.47,0.0431,0.0222,0.6922,0
2003/9/3 13:15,2.2002,0,0,1.7898,0.0647,0.0428,0.0701,0.9576,0
2003/9/3 13:30,2.0118,0,0,0.4846,0.4687,0.0429,0.022,0.9661,0
2003/9/3 13:45,1.9855,0,0,0.1243,0.4329,0.0426,0.0217,0.8996,0
2003/9/3 14:00,1.9971,0,0,0.1296,0.0721,0.0426,0.0215,0.8892,0
2003/9/3 14:15,2.0192,0,0,0.1218,0.4693,0.0426,0.0212,0.8987,0
2003/9/3 14:30,2.2952,0,0,0.1282,0.419,0.0426,0.0212,0.6605,0
2003/9/3 14:45,2.2645,0,0,0.1243,0.0773,0.0423,0.0216,0.2556,0
2003/9/3 15:00,2.2476,0,0,0.1251,0.4687,0.0422,0.0708,0.2562,0
2003/9/3 15:15,2.2509,0,0,0.127,0.4127,0.0423,0.0212,0.5638,0
2003/9/3 15:30,2.2429,0,0,0.1244,0.0801,0.042,0.021,0.7407,0
2003/9/3 15:45,2.2127,0,0,0.1302,0.4192,0.0422,0.0206,0.9315,0
2003/9/3 16:00,2.2035,0,0,0.1198,0.4044,0.042,0.0184,0.9933,0
2003/9/3 16:15,2.0966,0,0,0.1282,0.1011,0.2101,0.0081,1.0786,0
2003/9/3 16:30,2.0749,0,0,0.1244,0.4124,0.5056,0.0094,1.1622,0
2003/9/3 16:45,2.0578,0,0,0.126,0.4506,0.4941,0.0243,1.1416,0
2003/9/3 17:00,2.05,0,0,0.1221,0.0992,0.2716,0.071,1.817,0
2003/9/3 17:15,2.032,0,0,0.1273,0.3764,0.0876,0.0206,1.1796,0
2003/9/3 17:30,2.0193,0,0,0.1259,0.4025,0.0881,0.0199,1.1232,0
2003/9/3 17:45,1.8547,0,0,0.1266,0.1359,0.0883,0.0206,1.0022,0
2003/9/3 18:00,1.724,0,0,0.1256,0.3708,0.1932,0.0171,1.056,0
2003/9/3 18:15,1.5422,0,0,0.1261,0.451,0.4019,0.0209,1.1124,0
2003/9/3 18:30,1.5489,0,0,0.1276,0.1413,0.3996,0.021,1.1062,0
2003/9/3 18:45,1.546,0,0,0.1279,0.3712,0.3901,0.0207,1.097,0
2003/9/3 19:00,1.5614,0,0,0.1233,0.4478,0.4185,0.021,1.094,0
2003/9/3 19:15,1.641,0,0,0.1259,0.1346,0.4484,0.0736,1.1022,0
2003/9/3 19:30,1.6029,0,0,0.1266,0.3419,0.4088,0.0209,1.2097,0
2003/9/3 19:45,1.5307,0,0,2.8093,0.3996,0.3505,0.0147,1.3625,0
2003/9/3 20:00,1.5746,0,0,0.7979,0.1224,0.0641,0.0102,1.2326,0
2003/9/3 20:15,1.5614,0,0,1.2636,0.3439,0.0428,0.0098,1.442,0
2003/9/3 20:30,1.5552,0,0,0.9634,0.3957,0.0431,0.0248,0.7197,0
2003/9/3 20:45,1.5494,0,0,0.3419,0.1162,0.0431,0.0219,0.9916,0
2003/9/3 21:00,1.5445,0,0,1.2583,0.3489,0.0429,0.022,1.2607,0
2003/9/3 21:15,1.5448,0,0,0.6929,0.3887,0.0428,0.0691,1.4691,0
2003/9/3 21:30,1.5493,0,0,0.4311,0.1116,0.0423,0.0223,1.3481,0
2003/9/3 21:45,1.5543,0,0,0.8526,0.3969,0.0422,0.0225,1.4947,0
2003/9/3 22:00,1.5548,0,0,0.1444,0.4477,0.0425,0.0226,1.7188,0
2003/9/3 22:15,1.5556,0,0,0.1503,0.1132,0.0423,0.0232,1.7155,0
2003/9/3 22:30,1.5624,0,0,0.1786,0.3944,0.0423,0.023,1.8372,0
2003/9/3 22:45,1.5667,0,0,0.1765,0.3565,0.0431,0.023,1.7189,0
2003/9/3 23:00,1.5659,0,0,0.186,0.144,0.0431,0.0649,1.6885,0
2003/9/3 23:15,1.2635,0,0,0.1835,0.4575,0.2419,0.0206,1.6631,0
2003/9/3 23:30,0.2961,0,0,0.1863,0.3443,0.416,0.023,1.6072,0
2003/9/3 23:45,0.7661,0,0,0.1797,0.1145,0.4064,0.0226,1.3399,0
2003/9/4 0:00,0.3332,0,0,0.1868,0.4105,0.3072,0.0226,1.5445,0
2003/9/4 0:15,0.6003,0,0,0.1876,0.326,0.0429,0.0228,0.3887,0
2003/9/4 0:30,1.3743,0,0,0.182,0.1372,0.0433,0.0223,0.4097,0
2003/9/4 0:45,0.3326,0,0,0.1804,0.4671,0.0435,0.0723,0.3927,0
2003/9/4 1:00,0.7943,0,0,0.1837,0.4409,0.0432,0.0154,0.3298,0
2003/9/4 1:15,0.5844,0,0,0.1849,0.0592,0.0435,0.0092,0.3168,0
2003/9/4 1:30,0.4095,0,0,0.1865,0.4189,0.0433,0.0117,0.3267,0
2003/9/4 1:45,1.0356,0,0,0.1882,0.402,0.0435,0.0121,0.3131,0
2003/9/4 2:00,0.0651,0,0,0.1793,0.1152,0.0439,0.0122,0.3263,0
2003/9/4 2:15,0.1758,0,0,0.1904,0.3653,0.0432,0.0122,0.3108,0
2003/9/4 2:30,0.8299,0,0,0.1761,0.4067,0.0439,0.0641,0.3192,0
2003/9/4 2:45,0.0674,0,0,0.1853,0.142,0.0438,0.0121,0.3306,0
2003/9/4 3:00,0.5676,0,0,0.1886,0.3358,0.0432,0.0122,0.3368,0
2003/9/4 3:15,0.0639,0,0,0.2608,0.3977,0.0429,0.0121,0.361,0
2003/9/4 3:30,0.4198,0,0,0.3924,0.4265,0.0428,0.0124,0.7872,0
2003/9/4 3:45,0.1486,0,0,0.2131,0.3136,0.0432,0.012,0.3403,0
2003/9/4 4:00,0.3816,0,0,0.1732,0.5664,0.0432,0.0124,0.3239,0
2003/9/4 4:15,0.066,0,0,0.2115,0.5676,0.0433,0.0121,0.3979,0
2003/9/4 4:30,0.4399,0,0,0.2137,0.5075,0.0429,0.0624,0.3031,0
2003/9/4 4:45,0.0783,0,0,0.2161,0.5581,0.0432,0.0121,0.4051,0
2003/9/4 5:00,0.1891,0,0,0.2156,0.5482,0.0428,0.0122,0.4078,0
2003/9/4 5:15,0.2462,0,0,0.2138,0.5105,0.0429,0.0121,0.3148,0
2003/9/4 5:30,0.2821,0,0,0.2102,0.5181,0.0428,0.0122,0.3083,0
2003/9/4 5:45,0.1418,0,0,0.2225,0.0883,0.0431,0.0122,0.3372,0
2003/9/4 6:00,0.2506,0,0,0.2127,0.4144,0.0428,0.0122,0.4372,0
2003/9/4 6:15,0.1158,0,0,0.2199,0.4336,0.0429,0.0773,0.5596,0
2003/9/4 6:30,0.1174,0,0,0.2114,0.058,0.0431,0.0232,0.419,0
2003/9/4 6:45,0.1077,0,0,0.734,0.4504,0.3233,0.019,0.989,0
2003/9/4 7:00,0.0998,0,0,2.5448,0.4581,0.4306,0.0223,1.3745,0
2003/9/4 7:15,0.0452,0,0,0.751,0.0996,0.4179,0.0204,1.2112,0
2003/9/4 7:30,0,0,0,3.2779,0.4238,0.4167,0.0228,1.7135,0
2003/9/4 7:45,0,0,0,0.105,0.4404,0.4251,0.0629,1.366,0
2003/9/4 8:00,0,0,0,0.1309,0.074,0.4094,0.0223,1.3334,0
2003/9/4 8:15,0,0,0,0.1545,0.4418,0.4185,0.023,1.3152,0
2003/9/4 8:30,0,0,0,0.2035,0.4366,0.3756,0.0235,1.2069,0
2003/9/4 8:45,0,0,0,0.2056,0.1362,0.4261,0.0238,1.1344,0
2003/9/4 9:00,0,0,0,0.2265,0.3041,0.4271,0.0698,1.1903,0
2003/9/4 9:15,0,0,0,0.1968,0.4463,0.4303,0.0233,1.1436,0
2003/9/4 9:30,0,0,0,0.1518,0.1148,0.073,0.0238,1.0207,0
2003/9/4 9:45,0,0,0,0.1562,0.3964,0.0425,0.0222,0.975,0
2003/9/4 10:00,0,0,0,0.1552,0.3709,0.0433,0.0588,1.0174,0
2003/9/4 10:15,0,0,0,0.1761,0.1392,0.0431,0.0217,0.8695,0
2003/9/4 10:30,0,0,0,0.1797,0.463,0.0429,0.022,0.2759,0
2003/9/4 10:45,0,0,0,0.1845,0.3432,0.0429,0.0236,0.238,0
2003/9/4 11:00,0,0,0,0.1842,0.1238,0.0429,0.0671,0.2274,0
2003/9/4 11:15,0,0,0,0.1905,0.4105,0.0431,0.0232,0.2403,0
2003/9/4 11:30,0,0,0,0.1868,0.3144,0.0428,0.023,0.239,0
2003/9/4 11:45,0,0,0,0.1869,0.1421,0.0429,0.0235,0.2354,0
2003/9/4 12:00,0,0,0,0.1849,0.4107,0.052,0.023,0.2343,0
2003/9/4 12:15,0,0,0,0.1856,0.3005,0.0432,0.023,0.2281,0
2003/9/4 12:30,0,0,0,0.1862,0.1472,0.0432,0.0232,0.2464,0
2003/9/4 12:45,0,0,0,0.1819,0.4104,0.0431,0.0714,0.3031,0
2003/9/4 13:00,0,0,0,0.1904,0.2997,0.0432,0.023,0.2339,0
2003/9/4 13:15,0,0,0,0.1856,0.1529,0.0432,0.023,0.3231,0
2003/9/4 13:30,0,0,0,0.1856,0.4095,0.0429,0.0226,0.361,0
2003/9/4 13:45,0,0,0,0.1846,0.2877,0.0428,0.0229,0.3803,0
2003/9/4 14:00,0,0,0,0.1816,0.1513,0.0428,0.02,0.3256,0
2003/9/4 14:15,0,0,0,0.184,0.4103,0.0428,0.0225,0.2442,0
2003/9/4 14:30,0,0,0,0.1845,0.2854,0.0432,0.0714,0.274,0
2003/9/4 14:45,0,0,0,0.1878,0.1526,0.3508,0.0228,0.4009,0
2003/9/4 15:00,0,0,0,0.1837,0.4084,0.4465,0.0222,0.2956,0
2003/9/4 15:15,0,0,0,0.2591,0.2791,0.419,0.0228,0.3597,0
2003/9/4 15:30,0,0,0,0.3966,0.1682,0.4048,0.022,0.4604,0
2003/9/4 15:45,0,0,0,0.2035,0.4085,0.3184,0.022,0.6595,0
2003/9/4 16:00,0,0,0,0.1716,0.2749,0.087,0.0156,0.77,0
2003/9/4 16:15,0,0,0,0.2097,0.1594,0.0867,0.0092,0.8398,0
2003/9/4 16:30,0,0,0,0.213,0.4074,0.0867,0.0629,1.0541,0
2003/9/4 16:45,0,0,0,0.2151,0.2693,0.0868,0.0259,0.7927,0
2003/9/4 17:00,0,0,0,0.2114,0.1748,0.0867,0.0233,0.701,0
2003/9/4 17:15,0,0,0,0.2174,0.408,0.0868,0.0228,0.7121,0
2003/9/4 17:30,0,0,0,0.2133,0.2664,0.0867,0.0202,0.7465,0
2003/9/4 17:45,0,0,0,0.2146,0.1803,0.0864,0.0233,0.8767,0
2003/9/4 18:00,0,0,0,0.2173,0.4042,0.0865,0.0229,1.1137,0
2003/9/4 18:15,0,0,0,0.216,0.258,0.1512,0.0737,0.7079,0
2003/9/4 18:30,0,0,0,0.2239,0.1691,0.1853,0.0232,1.0198,0
2003/9/4 18:45,0,0,0,0.8343,0.4084,0.1822,0.0228,1.0647,0
2003/9/4 19:00,0,0,0,3.0675,0.2605,0.283,0.0229,1.3488,0
2003/9/4 19:15,0,0,0,0.1333,0.2151,0.1359,0.0232,1.3556,0
2003/9/4 19:30,0,0,0,0.131,0.4618,0.1306,0.023,1.0623,0
2003/9/4 19:45,0,0,0,0.13,0.2844,0.1286,0.0235,1.765,0
2003/9/4 20:00,0,0,0,0.1308,0.2197,0.129,0.0238,1.0531,0
2003/9/4 20:15,0,0,0,0.1303,0.4582,0.13,0.0645,1.6188,0
2003/9/4 20:30,0,0,0,0.1286,0.2748,0.1297,0.0229,1.6296,0
2003/9/4 20:45,0,0,0,0.1287,0.184,0.1283,0.0236,1.8135,0
2003/9/4 21:00,0,0,0,0.1319,0.45,0.1284,0.0235,1.1017,0
2003/9/4 21:15,0,0,0,0.1316,0.2655,0.1283,0.0238,1.6161,0
2003/9/4 21:30,0,0,0,0.1299,0.1551,0.1277,0.0235,0.955,0
2003/9/4 21:45,0,0,0,0.1323,0.4059,0.067,0.0744,1.0935,0
2003/9/4 22:00,0,0,0,0.1267,0.2375,0.0429,0.0239,0.9125,0
2003/9/4 22:15,0,0,0,0.1331,0.2151,0.0433,0.0239,0.65,0
2003/9/4 22:30,0,0,0,0.1326,0.4006,0.0429,0.5013,0.987,0
2003/9/4 22:45,0,0,0,0.128,0.2288,0.0426,0.7059,1.2463,0
2003/9/4 23:00,0,0,0,1.1758,0.2015,0.3252,0.5393,1.2848,0
2003/9/4 23:15,0,0,0,0.13,0.4607,0.3969,0.6263,1.1645,0
2003/9/4 23:30,0,0,0,0.1329,0.3034,0.4015,0.2071,1.1533,0
2003/9/4 23:45,0,0,0,0.1273,0.2051,0.4035,0.075,1.1262,0
2003/9/5 0:00,0,0,0,0.1325,0.4471,0.3898,0.0219,1.495,0
2003/9/5 0:15,0,0,0,0.13,0.126,0.419,0.0229,1.3445,0
2003/9/5 0:30,0,0,0,0.1312,0.3933,0.4039,0.0245,1.2011,0
2003/9/5 0:45,0,0,0,0.1315,0.4609,0.0436,0.0243,0.901,0
2003/9/5 1:00,0,0,0,0.13,0.2248,0.0433,0.0167,0.9049,0
2003/9/5 1:15,0,0,0,0.1325,0.2615,0.0435,0.0114,0.7209,0
2003/9/5 1:30,0,0,0,0.1329,0.4051,0.0426,0.0624,0.2654,0
2003/9/5 1:45,0,0,0,0.13,0.2755,0.0428,0.014,0.2572,0
2003/9/5 2:00,0,0,0,0.13,0.1931,0.0431,0.014,0.2516,0
2003/9/5 2:15,0,0,0,0.1312,0.4097,0.0429,0.0137,0.2599,0
2003/9/5 2:30,0,0,0,0.1297,0.2582,0.0429,0.0141,0.2583,0
2003/9/5 2:45,0,0,0,0.1331,0.1973,0.0428,0.014,0.2475,0
2003/9/5 3:00,0,0,0,0.1333,0.4061,0.0431,0.0652,0.2608,0
2003/9/5 3:15,0,0,0,0.1316,0.4056,0.0432,0.0143,0.2504,0